Weather History for KBMG - November, 2014

Change the Weather History Date:

Saturday, November 29, 2014

  Actual Average Record
Temperature  
Mean Temperature 45 °F 38 °F  
Max Temperature 58 °F 46 °F - ()
Min Temperature 32 °F 29 °F - ()
Degree Days  
Heating Degree Days 20 27  
Month to date heating degree days 835 609  
Since 1 July heating degree days 1266 1028  
Cooling Degree Days 0 0  
Month to date cooling degree days 0 0  
Year to date cooling degree days 904 926  
Moisture  
Dew Point 40 °F    
Average Humidity 72    
Maximum Humidity 83    
Minimum Humidity 60    
Precipitation  
Precipitation 0.00 in 0.13 in - ()
Month to date precipitation 2.38 3.81  
Year to date precipitation 42.55 43.88  
Sea Level Pressure  
Sea Level Pressure 29.88 in    
Wind  
Wind Speed 14 mph (SSW)    
Max Wind Speed 23 mph    
Max Gust Speed 33 mph    
Visibility 10 miles    
Events      
T = Trace of Precipitation, MM = Missing Value Source: NWS Daily Summary

Daily Weather History Graph

Daily Weather History Graph

Search for Another Location

Airport or City:

Trip Planner

Search our weather history database for the weather conditions in past years. The results will help you decide how hot, cold, wet, or windy it might be!

Date:

Astronomy

Nov. 29, 2014 Rise Set
Actual Time 7:44 AM EST 5:24 PM EST
Civil Twilight 7:15 AM EST 5:54 PM EST
Nautical Twilight 6:42 AM EST 6:27 PM EST
Astronomical Twilight 6:10 AM EST 6:59 PM EST
Moon 1:15 PM EST 12:11 AM EST
Length of Visible Light 10h 38m
Length of Day
9h 39m
First Quarter, 53% of the Moon is Illuminated
Nov 29
First Quarter
Dec 6
Full
Dec 14
Last Quarter
Dec 21
New
Dec 28
First Quarter

Hourly Weather History & Observations

Time (EST) Temp. Windchill Dew Point Humidity Pressure Visibility Wind Dir Wind Speed Gust Speed Precip Events Conditions
12:53 AM 33.1 °F 26.1 °F 24.1 °F 70% 30.02 in 10.0 mi SSE 8.1 mph - N/A   Clear
1:53 AM 32.0 °F 25.6 °F 24.1 °F 73% 30.01 in 10.0 mi SSE 6.9 mph - N/A   Clear
2:53 AM 32.0 °F 25.6 °F 24.1 °F 73% 30.00 in 10.0 mi SE 6.9 mph - N/A   Clear
3:53 AM 32.0 °F 26.4 °F 24.1 °F 73% 29.98 in 10.0 mi SE 5.8 mph - N/A   Clear
4:53 AM 37.9 °F 30.5 °F 27.0 °F 65% 29.96 in 10.0 mi SSW 11.5 mph - N/A   Clear
5:53 AM 39.9 °F 32.5 °F 28.0 °F 63% 29.94 in 10.0 mi SSW 12.7 mph - N/A   Clear
6:53 AM 41.0 °F 35.2 °F 28.9 °F 62% 29.93 in 10.0 mi SSW 9.2 mph - N/A   Scattered Clouds
7:53 AM 42.1 °F 36.6 °F 30.0 °F 62% 29.92 in 10.0 mi SSW 9.2 mph - N/A   Clear
8:53 AM 43.0 °F 36.8 °F 32.0 °F 65% 29.92 in 10.0 mi SSW 11.5 mph - N/A   Clear
9:53 AM 46.0 °F 40.2 °F 36.0 °F 68% 29.92 in 10.0 mi SSW 12.7 mph 21.9 mph N/A   Mostly Cloudy
10:53 AM 48.9 °F - 39.0 °F 69% 29.92 in 10.0 mi SSW 18.4 mph 26.5 mph N/A   Mostly Cloudy
11:02 AM 50.0 °F - 39.0 °F 66% 29.91 in 10.0 mi SW 13.8 mph 26.5 mph N/A   Scattered Clouds
11:53 AM 52.0 °F - 39.9 °F 63% 29.88 in 10.0 mi SW 13.8 mph 28.8 mph N/A   Clear
12:36 PM 53.1 °F - 43.0 °F 69% 29.87 in 10.0 mi SSW 16.1 mph 23.0 mph N/A   Mostly Cloudy
12:53 PM 51.1 °F - 43.0 °F 74% 29.87 in 10.0 mi SSW 21.9 mph 33.4 mph N/A   Overcast
1:53 PM 51.1 °F - 44.1 °F 77% 29.86 in 10.0 mi SW 18.4 mph 25.3 mph N/A   Overcast
2:53 PM 51.1 °F - 45.0 °F 80% 29.84 in 10.0 mi SSW 16.1 mph 27.6 mph N/A   Overcast
3:53 PM 52.0 °F - 46.0 °F 80% 29.82 in 10.0 mi SSW 13.8 mph 21.9 mph N/A   Overcast
4:53 PM 53.1 °F - 46.9 °F 80% 29.81 in 10.0 mi SSW 17.3 mph 25.3 mph N/A   Overcast
5:53 PM 53.1 °F - 46.9 °F 80% 29.81 in 10.0 mi SSW 16.1 mph 21.9 mph N/A   Overcast
6:53 PM 54.0 °F - 48.0 °F 80% 29.81 in 10.0 mi SSW 12.7 mph 24.2 mph N/A   Overcast
7:30 PM 55.0 °F - 48.0 °F 77% 29.81 in 10.0 mi South 13.8 mph - N/A   Overcast
7:51 PM 55.4 °F - 48.2 °F 77% 29.81 in 10.0 mi SSW 13.8 mph 23.0 mph N/A   Overcast
7:53 PM 55.0 °F - 48.0 °F 77% 29.82 in 10.0 mi South 15.0 mph 23.0 mph N/A   Overcast
8:53 PM 55.9 °F - 48.9 °F 77% 29.82 in 10.0 mi SSW 13.8 mph 23.0 mph N/A   Overcast
9:53 PM 57.0 °F - 48.9 °F 74% 29.83 in 10.0 mi SSW 15.0 mph 26.5 mph N/A   Overcast
10:30 PM 57.0 °F - 50.0 °F 77% 29.83 in 10.0 mi SSW 13.8 mph 23.0 mph N/A   Overcast
10:53 PM 57.0 °F - 50.0 °F 77% 29.83 in 10.0 mi SSW 17.3 mph 25.3 mph N/A   Overcast
11:53 PM 57.9 °F - 51.1 °F 78% 29.83 in 10.0 mi SW 19.6 mph 26.5 mph N/A   Overcast